Terminal Aerodrome Forecast
Issued by NWS Brownsville, TX

Home | Current Version | Previous Version | Text Only | Print | Product List | Glossary On
Versions: 1 2 3 4 5 6 7 8 9 10 11 12 13 14 15 16 17 18 19 20 21 22 23 24 25 26 27
000
FTUS44 KBRO 202324
TAFBRO
TAF
KBRO 202324Z 2100/2124 14013G20KT P6SM BKN020
     FM210500 15011KT P6SM SCT008 BKN015
     FM211600 17018G28KT P6SM BKN015=

USA.gov is the U.S. government's official web portal to all federal, state and local government web resources and services.